This is the latest recevied weather packets stored in our database for station/object WA1TYB-13. If no packets are shown the sender has not sent any weather packets the latest 10 day(s).
| Time | Temp. | Humidity | Pressure | Rain* | Wind** | Luminosity | Snow |
|---|---|---|---|---|---|---|---|
| 1777923230 | 12.78° C | 38% | 1017 hPa | 0 mm | - | 496 W/m² | - |
| 1777922929 | 12.78° C | 36% | 1016.9 hPa | 0 mm | - | 605 W/m² | - |
| 1777922627 | 12.22° C | 37% | 1016.9 hPa | 0 mm | - | 567 W/m² | - |
| 1777922325 | 12.22° C | 37% | 1016.9 hPa | 0 mm | - | 459 W/m² | - |
| 1777922023 | 12.22° C | 37% | 1017.1 hPa | 0 mm | - | 390 W/m² | - |
| 1777921718 | 12.22° C | 38% | 1016.9 hPa | 0 mm | - | 335 W/m² | - |
| 1777921414 | 12.22° C | 38% | 1017.2 hPa | 0 mm | - | 316 W/m² | - |
| 1777921111 | 11.67° C | 37% | 1017.2 hPa | 0 mm | - | 324 W/m² | - |
| 1777920808 | 11.67° C | 36% | 1017.1 hPa | 0 mm | - | 269 W/m² | - |
| 1777920504 | 11.67° C | 37% | 1017.2 hPa | 0 mm | - | 268 W/m² | - |
| 1777920200 | 11.67° C | 39% | 1016.9 hPa | 0 mm | - | 254 W/m² | - |
| 1777919895 | 11.67° C | 41% | 1017.4 hPa | 0 mm | - | 233 W/m² | - |
| 1777919593 | 11.67° C | 40% | 1017.5 hPa | 0 mm | - | 170 W/m² | - |
| 1777919290 | 11.67° C | 40% | 1017.2 hPa | 0 mm | - | 178 W/m² | - |
| 1777918988 | 11.67° C | 39% | 1017.1 hPa | 0 mm | - | 180 W/m² | - |
| 1777918685 | 11.67° C | 41% | 1017.2 hPa | 0 mm | - | 201 W/m² | - |
| 1777918382 | 12.22° C | 40% | 1017.2 hPa | 0 mm | - | 176 W/m² | - |
| 1777918081 | 12.22° C | 39% | 1017.1 hPa | 0 mm | - | 207 W/m² | - |
| 1777917779 | 12.22° C | 41% | 1017.2 hPa | 0 mm | - | 212 W/m² | - |
| 1777917477 | 11.67° C | 40% | 1017.2 hPa | 0 mm | - | 206 W/m² | - |
| 1777917173 | 12.22° C | 40% | 1017.4 hPa | 0 mm | - | 294 W/m² | - |
| 1777916871 | 12.22° C | 40% | 1017.2 hPa | 0 mm | - | 307 W/m² | - |
| 1777916569 | 12.22° C | 40% | 1017.1 hPa | 0 mm | - | 245 W/m² | - |
| 1777916265 | 12.22° C | 41% | 1017.5 hPa | 0 mm | - | 280 W/m² | - |
| 1777915962 | 12.22° C | 39% | 1017.1 hPa | 0 mm | - | 376 W/m² | - |
* Rain latest hour (hover to see other rain measurements)
** Current wind speed in m/s (hover to see current wind gust speed)